Regional Weather Roundup
Issued by NWS

Home | Current Version | Previous Version | Graphics & Text | Print | Product List | Glossary On
Versions: 1 2 3 4 5 6 7 8 9 10 11 12 13 14 15 16 17 18 19 20 21 22 23 24 25 26 27 28 29 30 31 32 33 34 35 36 37 38 39 40 41 42 43 44 45 46 47 48 49 50
000
ASUS43 KFSD 220810
RWRSD

WEATHER ROUNDUP FOR SOUTH DAKOTA
NATIONAL WEATHER SERVICE SIOUX FALLS SD
300 AM CDT TUE AUG 22 2017

NOTE: "FAIR" INDICATES FEW OR NO CLOUDS BELOW 12,000 FEET WITH NO
SIGNIFICANT WEATHER AND/OR OBSTRUCTIONS TO VISIBILITY.


SDZ001>005-009-010-012>017-220900-
NORTHWEST AND NORTH CENTRAL SOUTH DAKOTA

CITY           SKY/WX    TMP DP  RH WIND       PRES   REMARKS
BUFFALO          N/A     54  41  61 W3        30.15S
FAITH            N/A     56  46  69 W3        30.19S
MOBRIDGE       CLEAR     52  47  83 N6        30.12S
$$

SDZ012>016-024>037-041>051-057-063-072>074-220900-
SOUTHWEST AND SOUTH CENTRAL SOUTH DAKOTA

CITY           SKY/WX    TMP DP  RH WIND       PRES   REMARKS
RAPID CTY ARPT CLEAR     54  41  61 NW6       30.22S
PIERRE         CLEAR     56  46  69 N8        30.13S
CUSTER         CLEAR     47  35  63 CALM      30.32S
ELLSWORTH AFB  CLEAR     54  41  61 W6        30.21S
PHILIP         CLEAR     49  44  83 W6        30.18S
SPEARFISH      FAIR      52  37  58 SE3       30.25S
WINNER         FAIR      59  51  75 W3        30.16S
$$

SDZ004>011-016>023-039-040-220900-
NORTHEAST SOUTH DAKOTA

CITY           SKY/WX    TMP DP  RH WIND       PRES   REMARKS
ABERDEEN       CLEAR     52  46  80 NW7       30.09R
WATERTOWN      CLEAR     55  51  86 N9        30.06R
BROOKINGS      CLEAR     56  52  86 N7        30.07R
SISSETON         N/A     56  52  86 NW8       30.04R
$$

SDZ017-020-022-023-036>040-048>070-220900-
SOUTHEAST SOUTH DAKOTA

CITY           SKY/WX    TMP DP  RH WIND       PRES   REMARKS
SIOUX FALLS    CLEAR     61  56  83 N10       30.06R
HURON          CLEAR     50  49  96 NW8       30.09S
CHAMBERLAIN    CLEAR     59  53  81 NW6       30.14S
MITCHELL       CLEAR     56  52  86 NW9       30.10R
YANKTON        CLEAR     61  58  90 NW10      30.08R
$$

ABBREVIATIONS USED IN REMARKS
   TC - TEMPERATURE IN CELSIUS
  WCI - WIND CHILL INDEX
   HX - HEAT INDEX
  VSB - VISIBILITY




USA.gov is the U.S. government's official web portal to all federal, state and local government web resources and services.